Weather in Berezhnoy

Russia / Belgorod Oblast     50°31′15″N   38°52′02″E
temp.,
°C
wind,
m/s
gust,
m/s
humid.,
%
clouds,
%
prec.,
mm/h
press.,
hPa
HPBL,
m
17 october, sun
sun1700:00+11ne1161100 0.1 101810
03:00+11n2264100 0.1 101735
06:00+10ne2266100 0.0 101723
09:00+11nne2360100 0.0 1018160
12:00+14nne224977 0.0 1017537
15:00+15nnw224478 0.0 1016981
18:00+12n225276 0.0 101614
21:00+9n22696 0.0 101616
18 october, mon
mon1800:00+8nw22769 0.0 101617
03:00+6nw228046 0.0 101728
06:00+5nw338349 0.0 101743
09:00+7nw3473100 0.0 1017246
12:00+11wnw455059 0.0 10161077
15:00+12wnw5643100 0.0 10151466
18:00+9wnw3651100 0.0 1016122
21:00+7w3858100 0.0 1016220
19 october, tue
tue1900:00+7w4672100 0.1 1016794
03:00+6w4684100 0.9 1015927
06:00+7w4683100 0.3 10141011
09:00+6nw6786100 0.5 1015898
12:00+7nnw476170 0.1 10161265
15:00+9nw68355 0.1 10162179
18:00+5nw4105255 0.0 1018265
21:00+4nnw5116843 0.0 1018414
20 october, wed
wed2000:00+2nw49787 0.0 1020282
03:00+1nw49797 0.0 1021298
06:000nw410825 0.0 1023271
09:00+2nnw58735 0.0 1025512
12:00+6nnw575294 0.0 10261500
15:00+6nw565186 0.1 10261418
18:00+2n236922 0.0 102733
21:00+1n0075100 0.0 102710
21 october, thu
thu2100:000s337974 0.0 102733
03:000ssw3474100 0.0 102671
06:000sw4972100 0.0 1025185
09:00+4sw61157100 0.0 1025371
12:00+9sw7104079 0.0 1023803
15:00+11sw8103181 0.0 10211032
18:00+8ssw6133897 0.0 1020362
21:00+8ssw61548100 0.0 1019453